STARLINK-1464, 45751

Orbit data source: Space-Track

STARLINK-1464, 45751 is a payload satellite owned by SpaceX/Seattle (US) in LEO that was launched on Sat, 13 Jun 2020 UTC via an FALCON 9 launch vehicle from the Air Force Eastern Test Range (AFETR). Payload-class satellites include a variety of spacecraft equipped with specific instruments for various scientific and technological missions. These include communications satellites like Starlink; space stations such as the ISS; scientific satellites like the Hubble; Earth observation satellites from companies like Planet Labs, Umbra, and HawkEye 360; GPS; miniature CubeSats for education and research; and military/defense satellites.

Loading next visibility...
Identifier
45751, 2020-038X
Orbit
LEO
Country
Flag of USUS
Related business
Manufacturer
SpaceX/Seattle
Mission
Partially operational Commercial Communications
Bus & Motor
STARLINK, Unknown motor
Mass
260 kg wet, ~248 kg dry
Launch date (UTC)
2020-06-13 (6 years ago)
Launch vehicle
FALCON 9
Launch site
Air Force Eastern Test Range (AFETR)
Object type
Payload
Rocket body
Debris
Shape & HBR
Box + 1 Pan, 10.1 m
Radar Cross Section
13.562 m², Large (>1 m²)

Expand to show TLE details & history
Last TLE update: 2 days ago

TLE from 2 days ago
0 STARLINK-1464
1 45751U 20038X   26171.14961039  .00025816  00000-0  38683-3 0  9998
2 45751  53.0461  72.8999 0004582  76.3140 283.8380 15.54794819332549
Epoch: 2026-06-20T03:35Z
TLE epoch observation values (Epoch: 2026-06-20T03:35:26.337Z)
Latitude
-0.00002°
Longitude
110.67177°
Altitude
402.904 km
Speed
7.671 km/s
True Right ascension
04h 51m 35s
True Declination
0° 00' 00"
Sunlit
Object was in daylight at epoch
Visualization orbit readout
Latitude
Unknown
Longitude
Unknown
Altitude
Unknown
Speed
Unknown
Apparent Right ascension
Unknown
Apparent Declination
Unknown
Sunlit
N/A
Visualization observer readout
Local Sidereal Time
21:34:19
Azimuth
Unknown
Elevation
Unknown
Doppler factor
Unknown
Orbital elements
Apogee altitude
406.134 km
Perigee altitude
399.92 km
Semi-major axis
6,781.164 km
Eccentricity
0.00046
Inclination
53.0461°
RAAN
72.8999°
Arg. of periapsis
76.314°
True anomaly
283.78701°
Mean anomaly
283.838°
Eccentric anomaly
283.81251°
Mean motion
3.88675 °/min
Orbital period
92.62 mins
BSTAR
0.00038683
Loading maneuver chart data...
Computing Atmospheric mass density...

Documentation

Showing up to 5 results
|